[[{"header":{"parameterUnit":"m.s-1","parameterCategory":1,"la1":30.2991,"la2":30.254,"lo1":-89.0895,"lo2":-89.0444,"dy":0.0017,"dx":0.0017,"nx":28,"ny":28,"refTime":"2025-08-25T09:00:00:Z","depth":0,"parameterNumber":2,"parameterNumberName":"U-component_of_WINDS"},"data":[0,0,0,0,0,0,0,0,0,0,0,0,0,0,0,0,0,0,0,0,0,0,0,0,0,0,0,0,0,0,0,0,0,0,0,0,0,0,0,0,0,0,0,0,0,0,0,0,0,0,0,0,0,0,0,0,0,0,-2.0429,-2.0428,0,-2.0318,-2.0317,-2.0315,-2.022,-2.0219,-2.0218,-2.0217,-2.0104,-2.0102,-2.0099,0,0,0,0,0,0,0,0,0,0,0,0,0,-2.0561,-2.0559,-2.043,-2.0428,-2.0427,-2.0318,-2.0317,-2.0315,-2.0221,-2.0219,-2.0218,-2.0217,-2.0104,-2.0102,-2.0099,0,0,0,0,0,0,0,0,0,0,0,0,0,-2.0482,-2.0558,-2.043,-2.0367,-2.036,-2.0318,-2.0317,-2.0315,-2.0221,-2.0219,-2.0218,-2.0216,-2.0105,-2.0102,-2.0099,-2.0111,0,0,-2.009,-2.0088,0,0,0,0,0,0,0,0,-2.0487,-2.0478,-2.0377,-2.0371,-2.0363,-2.0281,-2.0321,-2.0247,-2.0221,-2.0274,-2.0217,-2.0216,-2.0164,-2.0156,-2.0139,-2.0106,-2.0101,-2.0089,-2.0087,-2.0086,-2.0085,0,0,0,0,0,0,0,-2.0492,-2.0482,-2.0385,-2.0376,-2.0367,-2.0344,-2.0331,-2.0307,-2.0229,-2.0269,-2.0262,-2.025,-2.016,-2.0142,-2.0135,-2.01,-2.0089,-2.0087,-2.0085,-2.0084,-2.0073,-2.0074,0,0,0,0,0,0,-2.0508,-2.0487,-2.0389,-2.0382,-2.0422,-2.0343,-2.0328,-2.0309,-2.0229,-2.0215,-2.0251,-2.0246,-2.0148,-2.0139,-2.0131,-2.0141,-2.0086,-2.0083,-2.0081,-2.0071,-2.0073,-2.0075,0,0,0,0,0,0,-2.0511,-2.05,-2.0393,-2.0432,-2.0417,-2.0342,-2.0322,-2.0308,-2.029,-2.0216,-2.0201,-2.0247,-2.0146,-2.0135,-2.0117,-2.0136,-2.0082,-2.0079,-2.0069,-2.0072,-2.0074,-2.0162,0,0,0,0,0,0,-2.0515,-2.0501,-2.0505,-2.0433,-2.0415,-2.0382,-2.0323,-2.0307,-2.0285,-2.0276,-2.0208,-2.0195,-2.0144,-2.0122,-2.0114,-2.0131,-2.0077,-2.0067,-2.0071,-2.0073,-2.0157,-2.0167,-2.0175,0,0,0,0,0,-2.052,-2.0534,-2.0506,-2.0495,-2.0419,-2.0383,-2.0373,-2.0314,-2.0286,-2.029,-2.0242,-2.0197,-2.0135,-2.0121,-2.0111,-2.0127,-2.0066,-2.007,-2.0073,-2.0153,-2.0165,-2.0175,0,0,0,0,0,0,-2.0611,-2.0524,-2.0491,-2.0483,-2.0441,-2.0367,-2.037,-2.0328,-2.0294,-2.0287,-2.0215,-2.0201,-2.0191,-2.0157,-2.0143,-2.0135,-2.0094,-2.0096,-2.0159,-2.0169,-2.0178,-2.0188,-2.0074,0,0,0,0,0,-2.063,-2.0608,-2.0533,-2.0533,-2.0513,-2.0446,-2.0428,-2.0386,-2.034,-2.0322,-2.0273,-2.023,-2.02,-2.0183,-2.0151,-2.0151,-2.0135,-2.0157,-2.0166,-2.0174,-2.0177,-2.0175,-2.0184,-2.0086,-2.0086,-2.0086,0,0,-2.0669,-2.0619,-2.0609,-2.055,-2.0512,-2.0492,-2.0431,-2.0412,-2.0396,-2.0318,-2.0299,-2.0262,-2.0209,-2.02,-2.0194,-2.0171,-2.02,-2.0179,-2.0186,-2.0184,-2.018,-2.0189,-2.0198,-2.0089,-2.0088,-2.0088,0,0,-2.073,-2.0689,-2.0685,-2.0649,-2.0593,-2.0548,-2.0547,-2.0479,-2.0452,-2.0431,-2.0373,-2.0353,-2.0303,-2.0269,-2.0245,-2.0293,-2.025,-2.0285,-2.0333,-2.0333,-2.034,-2.0347,-2.0366,-2.0373,-2.0287,-2.0287,-2.0288,0,-2.0786,-2.0752,-2.0688,-2.0672,-2.0648,-2.0577,-2.0573,-2.0541,-2.0478,-2.0463,-2.0439,-2.0376,-2.0335,-2.0318,-2.033,-2.0312,-2.031,-2.0293,-2.0344,-2.035,-2.0355,-2.0372,-2.038,-2.0292,-2.0292,-2.0291,-2.0291,0,-2.0824,-2.0802,-2.0805,-2.0747,-2.0723,-2.0713,-2.0648,-2.0631,-2.0591,-2.0549,-2.0529,-2.0478,-2.0436,-2.0428,-2.0389,-2.0405,-2.0393,-2.0358,-2.0315,-2.0371,-2.0385,-2.0391,-2.0299,-2.0297,-2.0296,-2.0295,0,0,-2.094,-2.0846,-2.0849,-2.0822,-2.0755,-2.0737,-2.0724,-2.0682,-2.067,-2.0629,-2.0617,-2.0577,-2.0544,-2.0517,-2.0473,-2.0472,-2.0515,-2.0436,-2.0434,-2.0454,-2.0532,-2.0561,-2.057,-2.0486,-2.0487,-2.0488,-2.0537,0,-2.0991,-2.0964,-2.0906,-2.0898,-2.0877,-2.0809,-2.0797,-2.0756,-2.0716,-2.0692,-2.0648,-2.0621,-2.0578,-2.0562,-2.0558,-2.0511,-2.053,-2.0506,-2.0476,-2.0475,-2.0493,-2.0577,-2.0607,-2.0656,-2.0543,-2.0543,-2.0544,0,-2.1048,-2.1012,-2.1001,-2.0936,-2.0925,-2.0916,-2.0874,-2.0852,-2.0804,-2.0775,-2.0745,-2.0697,-2.068,-2.064,-2.0616,-2.0601,-2.0585,-2.056,-2.0561,-2.0557,-2.0514,-2.0577,-2.067,-2.0679,-2.0552,-2.0552,-2.0551,0,-2.1136,-2.1084,-2.1071,-2.105,-2.0973,-2.0969,-2.0937,-2.0887,-2.0866,-2.0829,-2.0815,-2.0777,-2.0756,-2.0728,-2.0671,-2.0647,-2.0654,-2.0609,-2.0631,-2.0632,-2.0637,-2.0637,-2.073,-2.0624,-2.0623,-2.0623,-2.0623,0,-2.12,-2.1197,-2.1109,-2.1102,-2.1096,-2.1029,-2.1026,-2.0987,-2.0943,-2.0927,-2.0865,-2.0852,-2.0777,-2.0755,-2.071,-2.0698,-2.0689,-2.0665,-2.0654,-2.0672,-2.0675,-2.0662,-2.0657,-2.0625,-2.0625,-2.0624,-2.0624,0,-2.1298,-2.1239,-2.1221,-2.115,-2.1132,-2.1132,-2.1071,-2.1061,-2.1017,-2.0998,-2.099,-2.0921,-2.0892,-2.0832,-2.0786,-2.0756,-2.0755,-2.0733,-2.0772,-2.0765,-2.0791,-2.079,-2.088,-2.0889,-2.0775,-2.0776,-2.0777,0,-2.1344,-2.134,-2.1269,-2.1254,-2.1224,-2.1201,-2.1179,-2.1113,-2.1093,-2.1038,-2.1035,-2.1001,-2.0971,-2.0927,-2.0874,-2.0838,-2.0816,-2.085,-2.0811,-2.083,-2.0819,-2.0821,-2.0821,-2.086,-2.0861,-2.0863,-2.0864,0,-2.1432,-2.1403,-2.1375,-2.1336,-2.1313,-2.1279,-2.1242,-2.1233,-2.1159,-2.114,-2.1109,-2.1086,-2.1039,-2.1007,-2.0963,-2.0931,-2.0886,-2.0876,-2.088,-2.0899,-2.0923,-2.0912,-2.0798,-2.0875,-2.0874,-2.0873,-2.0872,-2.0872,-2.1506,-2.15,-2.145,-2.142,-2.1385,-2.1352,-2.134,-2.1295,-2.1268,-2.1225,-2.1187,-2.1161,-2.1113,-2.105,-2.102,-2.0999,-2.0977,-2.0981,-2.0983,-2.0985,-2.0994,-2.0925,-2.0991,-2.099,-2.099,-2.0989,-2.0989,0,-2.1593,-2.1557,-2.1531,-2.1481,-2.1458,-2.1417,-2.1374,-2.1358,-2.1335,-2.1294,-2.1265,-2.123,-2.1199,-2.1142,-2.1106,-2.11,-2.1078,-2.1093,-2.1094,-2.1087,-2.1015,-2.1016,-2.1111,-2.1111,-2.1111,-2.1111,-2.1111,-2.1111,-2.1636,-2.1623,-2.1589,-2.1559,-2.1522,-2.1496,-2.1475,-2.1445,-2.1412,-2.1376,-2.1349,-2.1313,-2.1266,-2.1225,-2.1195,-2.1179,-2.1169,-2.1191,-2.1169,-2.1103,-2.1092,-2.1081,-2.1082,-2.1189,-2.1189,-2.1243,-2.1244,-2.1244]},{"header":{"parameterUnit":"m.s-1","parameterCategory":1,"la1":30.2991,"la2":30.254,"lo1":-89.0895,"lo2":-89.0444,"dy":0.0017,"dx":0.0017,"nx":28,"ny":28,"refTime":"2025-08-25T09:00:00:Z","depth":0,"parameterNumber":3,"parameterNumberName":"V-component_of_WINDS"},"data":[0,0,0,0,0,0,0,0,0,0,0,0,0,0,0,0,0,0,0,0,0,0,0,0,0,0,0,0,0,0,0,0,0,0,0,0,0,0,0,0,0,0,0,0,0,0,0,0,0,0,0,0,0,0,0,0,0,0,-0.7757,-0.7757,0,-0.7789,-0.7789,-0.779,-0.7809,-0.7809,-0.7809,-0.7809,-0.7841,-0.7842,-0.7843,0,0,0,0,0,0,0,0,0,0,0,0,0,-0.7713,-0.7714,-0.7757,-0.7757,-0.7758,-0.7789,-0.7789,-0.779,-0.7809,-0.7809,-0.7809,-0.7809,-0.7841,-0.7842,-0.7843,0,0,0,0,0,0,0,0,0,0,0,0,0,-0.7737,-0.7714,-0.7757,-0.7771,-0.7773,-0.7789,-0.7789,-0.779,-0.7809,-0.7809,-0.7809,-0.7809,-0.7841,-0.7842,-0.7843,-0.7848,0,0,-0.7847,-0.7847,0,0,0,0,0,0,0,0,-0.7736,-0.7739,-0.7768,-0.777,-0.7772,-0.7795,-0.7786,-0.7809,-0.7809,-0.7795,-0.7809,-0.7809,-0.7826,-0.7828,-0.7834,-0.7849,-0.7851,-0.7847,-0.7848,-0.7848,-0.7848,0,0,0,0,0,0,0,-0.7734,-0.7737,-0.777,-0.7769,-0.7771,-0.7776,-0.7779,-0.779,-0.7809,-0.7796,-0.7798,-0.7801,-0.7827,-0.7833,-0.7835,-0.7851,-0.7847,-0.7848,-0.7849,-0.7849,-0.7874,-0.7874,0,0,0,0,0,0,-0.773,-0.7736,-0.7769,-0.7771,-0.7754,-0.7777,-0.7781,-0.7787,-0.7809,-0.7813,-0.7801,-0.7802,-0.7831,-0.7834,-0.7836,-0.7844,-0.7848,-0.7849,-0.785,-0.7874,-0.7874,-0.7874,0,0,0,0,0,0,-0.7729,-0.7733,-0.7767,-0.7754,-0.7758,-0.7777,-0.7785,-0.7788,-0.7794,-0.7813,-0.7816,-0.7804,-0.7831,-0.7834,-0.7845,-0.7846,-0.785,-0.7851,-0.7874,-0.7874,-0.7874,-0.786,0,0,0,0,0,0,-0.7728,-0.7732,-0.7734,-0.7754,-0.7759,-0.7776,-0.7785,-0.7788,-0.7796,-0.7798,-0.7816,-0.782,-0.7831,-0.7843,-0.7846,-0.7847,-0.7852,-0.7874,-0.7874,-0.7874,-0.7861,-0.7859,-0.7859,0,0,0,0,0,-0.7726,-0.7728,-0.7734,-0.7738,-0.7762,-0.7775,-0.7779,-0.7792,-0.7796,-0.7798,-0.7811,-0.7819,-0.7845,-0.7844,-0.7848,-0.7849,-0.7874,-0.7874,-0.7874,-0.7861,-0.786,-0.7859,0,0,0,0,0,0,-0.7708,-0.7731,-0.7738,-0.7746,-0.7759,-0.7779,-0.7782,-0.779,-0.7802,-0.7803,-0.7819,-0.7823,-0.7833,-0.7842,-0.7841,-0.7856,-0.7861,-0.7861,-0.785,-0.7848,-0.7847,-0.7845,-0.7853,0,0,0,0,0,-0.7705,-0.7714,-0.7734,-0.774,-0.7746,-0.7763,-0.7769,-0.7779,-0.7792,-0.7798,-0.7811,-0.7824,-0.7835,-0.7842,-0.7854,-0.7862,-0.7867,-0.7865,-0.7864,-0.7863,-0.7863,-0.787,-0.787,-0.7874,-0.7874,-0.7874,0,0,-0.7698,-0.7712,-0.7717,-0.7736,-0.7747,-0.7757,-0.7767,-0.7776,-0.7784,-0.7799,-0.7811,-0.7821,-0.7836,-0.7846,-0.7851,-0.7854,-0.7863,-0.7863,-0.7862,-0.7863,-0.787,-0.7869,-0.7869,-0.7874,-0.7874,-0.7874,0,0,-0.7692,-0.7703,-0.771,-0.7721,-0.7738,-0.7749,-0.7751,-0.777,-0.7777,-0.7789,-0.7801,-0.7811,-0.7829,-0.7841,-0.7849,-0.7849,-0.7857,-0.7852,-0.7847,-0.7853,-0.7853,-0.7853,-0.7854,-0.7854,-0.7852,-0.7852,-0.7852,0,-0.7682,-0.7697,-0.7712,-0.7722,-0.773,-0.7745,-0.7752,-0.7762,-0.7782,-0.7788,-0.7791,-0.7816,-0.7827,-0.7841,-0.7841,-0.7847,-0.785,-0.785,-0.7852,-0.7852,-0.7852,-0.7853,-0.7853,-0.7851,-0.7852,-0.7852,-0.7852,0,-0.7685,-0.7696,-0.7699,-0.7718,-0.7727,-0.7735,-0.7752,-0.7759,-0.7768,-0.778,-0.7792,-0.7807,-0.7822,-0.7826,-0.7834,-0.7841,-0.7843,-0.7848,-0.7854,-0.785,-0.7852,-0.7852,-0.785,-0.7851,-0.7851,-0.7851,0,0,-0.7668,-0.7696,-0.7697,-0.7707,-0.7727,-0.7735,-0.7745,-0.776,-0.7767,-0.778,-0.7789,-0.7805,-0.7811,-0.782,-0.783,-0.7836,-0.7836,-0.7841,-0.7842,-0.784,-0.7846,-0.7842,-0.7842,-0.7842,-0.7842,-0.7842,-0.7845,0,-0.7665,-0.7683,-0.7697,-0.771,-0.772,-0.7735,-0.7744,-0.7757,-0.7768,-0.7779,-0.7791,-0.7803,-0.781,-0.7816,-0.7822,-0.7835,-0.7838,-0.7835,-0.7851,-0.7852,-0.7847,-0.7843,-0.7838,-0.784,-0.7846,-0.7846,-0.7846,0,-0.7665,-0.7678,-0.7692,-0.7712,-0.7717,-0.7725,-0.7741,-0.775,-0.7767,-0.7774,-0.7786,-0.7796,-0.7808,-0.7812,-0.7829,-0.7826,-0.7834,-0.7842,-0.7842,-0.7845,-0.7849,-0.7846,-0.7841,-0.7841,-0.7847,-0.7847,-0.7847,0,-0.7652,-0.7674,-0.7685,-0.7692,-0.7716,-0.7721,-0.7731,-0.7748,-0.7757,-0.7771,-0.7777,-0.7792,-0.78,-0.7812,-0.7827,-0.7828,-0.7842,-0.7847,-0.785,-0.7849,-0.7852,-0.7852,-0.7849,-0.7856,-0.7856,-0.7856,-0.7856,0,-0.7648,-0.7656,-0.768,-0.7687,-0.7697,-0.7713,-0.7723,-0.7734,-0.7749,-0.7759,-0.7772,-0.7781,-0.78,-0.7812,-0.7824,-0.7837,-0.784,-0.7847,-0.785,-0.7846,-0.7846,-0.7852,-0.7852,-0.7856,-0.7856,-0.7856,-0.7856,0,-0.7636,-0.7652,-0.7665,-0.7687,-0.7693,-0.7699,-0.7718,-0.7726,-0.7738,-0.7751,-0.7755,-0.7774,-0.7789,-0.7805,-0.7825,-0.7833,-0.7845,-0.7849,-0.784,-0.7842,-0.7844,-0.7843,-0.7845,-0.7847,-0.7852,-0.7852,-0.7852,0,-0.7633,-0.764,-0.7662,-0.767,-0.768,-0.7692,-0.7702,-0.7719,-0.7728,-0.7748,-0.7753,-0.7769,-0.7783,-0.7805,-0.7821,-0.7837,-0.7842,-0.7842,-0.7844,-0.7841,-0.7843,-0.7843,-0.7844,-0.7841,-0.7841,-0.7841,-0.784,0,-0.7626,-0.7634,-0.7647,-0.7663,-0.7674,-0.7687,-0.7701,-0.7707,-0.7727,-0.7737,-0.7752,-0.7762,-0.7783,-0.7799,-0.7817,-0.7828,-0.7838,-0.784,-0.7841,-0.7837,-0.7832,-0.7836,-0.7838,-0.7839,-0.784,-0.784,-0.784,-0.784,-0.7619,-0.7626,-0.7644,-0.7658,-0.7671,-0.7684,-0.7692,-0.7706,-0.7719,-0.7738,-0.7747,-0.7762,-0.778,-0.7805,-0.7816,-0.7828,-0.7831,-0.7833,-0.7834,-0.7834,-0.7834,-0.783,-0.7832,-0.7832,-0.7832,-0.7832,-0.7832,0,-0.7614,-0.7626,-0.7639,-0.7659,-0.767,-0.7679,-0.7695,-0.7704,-0.7718,-0.7733,-0.7746,-0.7764,-0.778,-0.7798,-0.7815,-0.7822,-0.7827,-0.7826,-0.7826,-0.7828,-0.783,-0.7827,-0.7821,-0.7821,-0.7821,-0.7821,-0.7821,-0.7821,-0.7612,-0.7625,-0.7635,-0.7655,-0.7668,-0.7683,-0.7692,-0.7704,-0.7717,-0.7736,-0.775,-0.7761,-0.7778,-0.7796,-0.7811,-0.7816,-0.7822,-0.782,-0.7826,-0.7827,-0.7828,-0.7829,-0.7826,-0.7821,-0.7821,-0.7824,-0.7824,-0.7824]}]]